GW1900 Weather Reports


time (UTC)temp
C
wind
direction
speed
KPH
gust
KPH
rain 1hr
cm
rain 24hr
cm
rain mn
cm
humidity
%
barometer
mb
20260504050535 13 240 4.8 16.1 0.00 0.18 0.00 69 1006.2
20260504045533 13 232 4.8 12.9 0.00 0.18 0.18 69 1006.2
20260504045034 13 210 4.8 12.9 0.00 0.18 0.18 69 1006.1
20260504044559 13 238 6.4 12.9 0.00 0.18 0.18 69 1006.2
20260504044033 13 230 3.2 12.9 0.00 0.18 0.18 69 1006.2
20260504043534 13 229 4.8 11.3 0.00 0.18 0.18 69 1006.1
20260504043053 13 229 4.8 11.3 0.00 0.18 0.18 69 1006.2
20260504042534 13 232 3.2 9.7 0.00 0.18 0.18 68 1006.1
20260504042034 13 245 3.2 9.7 0.00 0.18 0.18 69 1006.1
20260504041544 13 173 3.2 9.7 0.00 0.18 0.18 69 1006.0
20260504041037 13 220 4.8 9.7 0.00 0.18 0.18 69 1006.1
20260504040535 13 180 3.2 8.0 0.00 0.18 0.18 69 1006.1
20260504040106 13 176 3.2 8.0 0.00 0.18 0.18 69 1006.1
20260504035534 13 189 1.6 8.0 0.00 0.18 0.18 69 1006.2
20260504035034 13 149 1.6 6.4 0.00 0.18 0.18 69 1006.3
20260504034610 13 182 1.6 6.4 0.00 0.18 0.18 69 1006.3
20260504034033 13 167 1.6 6.4 0.00 0.18 0.18 69 1006.4
20260504033533 13 178 0.0 3.2 0.00 0.18 0.18 68 1006.5
20260504033048 13 257 0.0 3.2 0.00 0.18 0.18 68 1006.5
20260504032534 13 0 0.0 4.8 0.00 0.18 0.18 67 1006.5
20260504032036 13 0 1.6 4.8 0.00 0.18 0.18 67 1006.6
20260504031547 13 203 1.6 4.8 0.00 0.18 0.18 67 1006.6
20260504031034 13 192 1.6 6.4 0.00 0.18 0.18 66 1006.7
20260504030534 13 239 1.6 6.4 0.00 0.18 0.18 66 1006.7
20260504025534 14 185 3.2 6.4 0.00 0.18 0.18 65 1006.7
20260504025032 14 213 1.6 6.4 0.00 0.18 0.18 65 1006.7
20260504024559 14 206 1.6 6.4 0.00 0.18 0.18 65 1006.7
20260504024034 14 205 1.6 6.4 0.00 0.18 0.18 64 1006.7
20260504023535 14 245 0.0 6.4 0.00 0.18 0.18 64 1006.7
20260504023050 15 237 0.0 6.4 0.00 0.18 0.18 63 1006.6
20260504022534 15 227 0.0 8.0 0.00 0.18 0.18 63 1006.6
20260504022038 15 235 1.6 8.0 0.00 0.18 0.18 62 1006.6
20260504021551 15 204 3.2 9.7 0.00 0.18 0.18 62 1006.6
20260504021034 15 234 3.2 11.3 0.00 0.18 0.18 62 1006.6
20260504020533 15 227 3.2 11.3 0.00 0.18 0.18 62 1006.5
20260504020047 15 242 3.2 11.3 0.00 0.18 0.18 61 1006.4
20260504015531 15 210 3.2 9.7 0.00 0.18 0.18 61 1006.4
20260504015033 15 232 3.2 8.0 0.00 0.18 0.18 60 1006.2
20260504014548 15 242 3.2 12.9 0.00 0.18 0.18 60 1006.3
20260504014034 16 194 4.8 12.9 0.00 0.18 0.18 60 1006.2
20260504013532 16 251 4.8 12.9 0.00 0.18 0.18 59 1006.2
20260504013051 16 208 6.4 14.5 0.00 0.18 0.18 59 1006.2
20260504012535 16 205 4.8 14.5 0.00 0.18 0.18 59 1006.1
20260504012035 16 205 6.4 12.9 0.00 0.18 0.18 58 1006.2
20260504011548 16 240 4.8 12.9 0.00 0.18 0.18 58 1006.2
20260504011034 16 201 3.2 11.3 0.00 0.18 0.18 57 1006.2
20260504010532 16 205 4.8 16.1 0.00 0.18 0.18 57 1006.2
20260504010048 17 232 4.8 16.1 0.00 0.18 0.18 56 1006.2
20260504005535 17 188 4.8 14.5 0.00 0.18 0.18 55 1006.2
20260504005032 17 255 6.4 14.5 0.00 0.18 0.18 55 1006.1
20260504004548 17 230 4.8 14.5 0.00 0.18 0.18 54 1006.1
20260504004035 17 234 6.4 14.5 0.00 0.18 0.18 54 1006.1
20260504003532 17 252 8.0 20.9 0.00 0.18 0.18 53 1006.1
20260504003051 18 223 9.7 20.9 0.00 0.18 0.18 52 1006.1
20260504002534 18 211 9.7 17.7 0.00 0.18 0.18 52 1006.1
20260504002035 18 242 8.0 20.9 0.00 0.18 0.18 52 1006.2
20260504001603 18 226 9.7 20.9 0.00 0.18 0.18 52 1006.2
20260504001034 18 220 9.7 20.9 0.00 0.18 0.18 52 1006.2
20260504000535 18 200 11.3 24.1 0.00 0.18 0.18 51 1006.1
20260504000052 18 210 12.9 24.1 0.00 0.18 0.18 50 1006.2
20260503235535 18 236 11.3 27.4 0.00 0.18 0.18 50 1006.2
20260503235034 18 248 9.7 27.4 0.00 0.18 0.18 50 1006.2
20260503234549 19 264 11.3 27.4 0.00 0.18 0.18 49 1006.3
20260503234035 19 230 11.3 27.4 0.00 0.18 0.18 49 1006.3
20260503233532 19 188 9.7 22.5 0.00 0.18 0.18 49 1006.2
20260503233048 19 248 11.3 29.0 0.00 0.18 0.18 48 1006.2
20260503232537 19 236 12.9 33.8 0.00 0.18 0.18 48 1006.2
20260503232035 19 232 16.1 33.8 0.00 0.18 0.18 48 1006.2
20260503231552 19 246 11.3 32.2 0.00 0.18 0.18 48 1006.3
20260503231033 19 255 11.3 25.7 0.00 0.18 0.18 48 1006.2
20260503230534 19 222 12.9 25.7 0.00 0.18 0.18 47 1006.2
20260503230049 19 232 12.9 32.2 0.00 0.18 0.18 47 1006.4
20260503225532 19 236 16.1 32.2 0.00 0.18 0.18 46 1006.4
20260503225032 20 263 12.9 32.2 0.00 0.18 0.18 46 1006.5
20260503224547 20 223 12.9 30.6 0.00 0.18 0.18 46 1006.4
20260503224033 20 263 12.9 30.6 0.00 0.18 0.18 46 1006.5
20260503223533 20 282 16.1 29.0 0.00 0.18 0.18 46 1006.6
20260503223045 20 232 12.9 29.0 0.00 0.18 0.18 46 1006.7
20260503222532 20 205 16.1 29.0 0.00 0.18 0.18 46 1006.5
20260503222039 20 222 12.9 29.0 0.00 0.18 0.18 47 1006.5
20260503221545 19 255 16.1 29.0 0.00 0.18 0.18 47 1006.7
20260503221035 18 236 14.5 30.6 0.00 0.18 0.18 47 1006.7
20260503220532 18 239 16.1 30.6 0.00 0.18 0.18 46 1006.8
20260503220042 19 240 12.9 25.7 0.00 0.18 0.18 45 1006.7
20260503215534 19 200 12.9 25.7 0.00 0.18 0.18 45 1006.8
20260503215034 19 214 16.1 27.4 0.00 0.18 0.18 45 1006.8
20260503214559 18 229 12.9 29.0 0.00 0.18 0.18 46 1006.8
20260503214032 18 228 12.9 29.0 0.00 0.18 0.18 46 1007.0
20260503213533 18 223 16.1 25.7 0.00 0.18 0.18 45 1007.0
20260503213048 18 242 8.0 29.0 0.00 0.18 0.18 47 1007.1
20260503212535 18 218 11.3 32.2 0.00 0.18 0.18 46 1007.2
20260503212033 18 228 14.5 32.2 0.00 0.18 0.18 45 1007.1
20260503211553 18 200 17.7 32.2 0.00 0.18 0.18 47 1007.2
20260503211031 18 201 11.3 35.4 0.00 0.18 0.18 48 1007.3
20260503210533 18 192 16.1 35.4 0.00 0.18 0.18 46 1007.4
20260503210044 18 170 12.9 30.6 0.00 0.18 0.18 46 1007.6
20260503205534 18 172 16.1 30.6 0.00 0.18 0.18 46 1007.6
20260503205031 17 220 11.3 27.4 0.00 0.18 0.18 48 1007.7
20260503204553 17 176 14.5 33.8 0.00 0.18 0.18 46 1007.9
20260503204034 18 229 14.5 33.8 0.00 0.18 0.18 46 1008.1
20260503203534 18 228 14.5 32.2 0.00 0.18 0.18 47 1008.1
20260503203050 17 233 14.5 32.2 0.00 0.18 0.18 46 1008.3
20260503202535 17 242 12.9 41.8 0.00 0.18 0.18 46 1008.4
20260503202035 17 239 17.7 41.8 0.00 0.18 0.18 44 1008.4
20260503201550 17 243 17.7 38.6 0.00 0.18 0.18 44 1008.3
20260503201034 17 249 14.5 38.6 0.00 0.18 0.18 46 1008.6
20260503200534 17 250 14.5 33.8 0.00 0.18 0.18 46 1008.7
20260503200049 17 204 16.1 35.4 0.00 0.18 0.18 46 1008.6
20260503195535 17 248 16.1 40.2 0.00 0.18 0.18 45 1008.8
20260503195034 17 171 17.7 40.2 0.00 0.18 0.18 44 1008.9
20260503194548 18 175 19.3 38.6 0.00 0.18 0.18 44 1008.9
20260503194031 18 230 20.9 35.4 0.00 0.18 0.18 44 1008.9
20260503193535 18 234 14.5 41.8 0.00 0.18 0.18 47 1009.0
20260503193057 18 255 17.7 41.8 0.00 0.18 0.18 48 1009.0
20260503192531 17 183 24.1 37.0 0.00 0.18 0.18 48 1009.2
20260503192035 17 195 17.7 38.6 0.00 0.18 0.18 47 1009.1
20260503191545 17 234 19.3 38.6 0.00 0.18 0.18 50 1009.2
20260503191035 17 227 16.1 35.4 0.00 0.18 0.18 53 1009.3
20260503190535 16 160 17.7 35.4 0.00 0.18 0.18 52 1009.3
20260503190100 16 238 16.1 35.4 0.00 0.18 0.18 53 1009.4
20260503185531 16 227 20.9 33.8 0.00 0.18 0.18 56 1009.4
20260503185032 15 167 19.3 35.4 0.00 0.18 0.18 57 1009.5
20260503184551 15 155 19.3 43.5 0.00 0.18 0.18 57 1009.7
20260503184034 15 184 19.3 43.5 0.00 0.18 0.18 58 1009.8
20260503183534 15 164 14.5 35.4 0.00 0.18 0.18 61 1009.8
20260503183058 15 150 16.1 35.4 0.00 0.18 0.18 61 1009.9
20260503182531 14 148 17.7 33.8 0.00 0.18 0.18 64 1010.1
20260503182034 13 168 16.1 27.4 0.00 0.18 0.18 68 1010.2
20260503181548 13 182 11.3 27.4 0.00 0.18 0.18 69 1010.4
20260503181031 13 172 16.1 27.4 0.00 0.18 0.18 69 1010.6
20260503180531 13 143 14.5 27.4 0.00 0.18 0.18 71 1010.6
20260503180055 12 196 14.5 27.4 0.00 0.18 0.18 71 1010.9
20260503175535 11 163 12.9 27.4 0.00 0.18 0.18 73 1011.1
20260503175032 11 149 14.5 24.1 0.00 0.18 0.18 75 1011.2
20260503174544 11 165 14.5 22.5 0.00 0.18 0.18 77 1011.3
20260503174035 10 173 11.3 22.5 0.00 0.18 0.18 77 1011.5
20260503173537 10 167 11.3 22.5 0.00 0.18 0.18 77 1011.7
20260503173109 10 147 9.7 22.5 0.00 0.18 0.18 76 1011.8
20260503172535 10 161 9.7 22.5 0.03 0.18 0.18 75 1012.0
20260503172034 10 149 9.7 16.1 0.03 0.18 0.18 75 1012.4
20260503171553 10 150 9.7 16.1 0.03 0.18 0.18 76 1012.8
20260503171036 10 144 8.0 16.1 0.03 0.18 0.18 78 1012.8
20260503170535 10 157 8.0 14.5 0.03 0.18 0.18 78 1012.9
20260503150531 11 281 11.3 25.7 0.00 0.00 0.00 66 1014.9
20260503131034 9 196 6.4 16.1 0.00 0.00 0.00 66 1014.6
20260503130537 9 223 6.4 19.3 0.00 0.00 0.00 66 1014.9
20260503110534 6 266 3.2 9.7 0.00 0.00 0.00 70 1014.5
20260503081554 5 221 1.6 8.0 0.00 0.00 0.00 69 1015.3
20260503081034 5 226 3.2 8.0 0.00 0.00 0.00 68 1015.4
20260503080538 5 240 3.2 8.0 0.00 0.00 0.00 68 1015.3
20260503080201 5 236 3.2 6.4 0.00 0.00 0.00 68 1015.3
20260503072534 6 249 1.6 4.8 0.00 0.00 0.00 67 1015.3
20260503072034 6 238 1.6 4.8 0.00 0.00 0.00 67 1015.3
20260503071557 6 201 1.6 6.4 0.00 0.00 0.00 67 1015.4
20260503071035 6 185 1.6 6.4 0.00 0.00 0.00 67 1015.4
20260503070534 6 180 1.6 6.4 0.00 0.00 0.00 67 1015.4